Retour au catalogue

NSS 7

ActifCommunicationsGEO
NORAD 27414·PAYLOAD·🇱🇺 Luxembourg

Lancé Apr 16, 2002 depuis Guiana Space Centre

Loading…

TLE

FraisSource: Space-Track

Époque: Sep 14, 2026, 05:59 UTC

1 27414U 02019A   26257.24959752 -.00000282  00000-0  00000-0 0  9998
2 27414   9.5240  56.7638 0004175 134.2707  48.1916  0.99085273 89342

Suivez NSS 7 en temps réel avec AllMySat

Download on the App Store